Weather History for KICR - September, 2013

Change the Weather History Date:

Sunday, September 8, 2013

  Actual Average Record
Temperature  
Mean Temperature 83 °F 68 °F  
Max Temperature 94 °F 81 °F 94 °F (2013)
Min Temperature 71 °F 55 °F 46 °F (2008)
Degree Days  
Heating Degree Days 0 2  
Month to date heating degree days 0 15  
Since 1 July heating degree days 7 29  
Cooling Degree Days 18 5  
Month to date cooling degree days 120 48  
Year to date cooling degree days 911 854  
Growing Degree Days 32 (Base 50)    
Moisture  
Dew Point 70 °F    
Average Humidity 69    
Maximum Humidity 93    
Minimum Humidity 44    
Precipitation  
Precipitation 0.03 in 0.06 in 0.03 in (2013)
Month to date precipitation 0.04 0.51  
Year to date precipitation 16.03 17.51  
Sea Level Pressure  
Sea Level Pressure 29.83 in    
Wind  
Wind Speed 11 mph (ESE)    
Max Wind Speed 20 mph    
Max Gust Speed 25 mph    
Visibility 9 miles    
Events Rain    
T = Trace of Precipitation, MM = Missing Value Source: NWS Daily Summary

Daily Weather History Graph

Daily Weather History Graph

Search for Another Location

Airport or City:

Trip Planner

Search our weather history database for the weather conditions in past years. The results will help you decide how hot, cold, wet, or windy it might be!

Date:

Astronomy

Sep. 08, 2013 Rise Set
Actual Time 7:11 AM CDT 8:01 PM CDT
Civil Twilight 6:42 AM CDT 8:30 PM CDT
Nautical Twilight 6:07 AM CDT 9:04 PM CDT
Astronomical Twilight 5:31 AM CDT 9:40 PM CDT
Moon 10:38 AM CDT (9/8) 9:30 PM CDT (9/8)
Length of Visible Light 13h 48m
Length of Day
12h 50m
Waxing Crescent, 11% of the Moon is Illuminated
Sep 8
Waxing Crescent
Sep 12
First Quarter
Sep 19
Full
Sep 26
Last Quarter
Oct 4
New

Hourly Weather History & Observations

Time (CDT) Temp. Heat Index Dew Point Humidity Pressure Visibility Wind Dir Wind Speed Gust Speed Precip Events Conditions
12:53 AM 75.9 °F - 66.9 °F 74% 29.90 in 10.0 mi SE 11.5 mph - N/A   Clear
1:53 AM 75.0 °F - 68.0 °F 79% 29.90 in 10.0 mi SE 9.2 mph - N/A   Clear
2:53 AM 75.0 °F - 69.1 °F 82% 29.90 in 10.0 mi SE 5.8 mph - N/A   Clear
3:53 AM 73.0 °F - 69.1 °F 87% 29.91 in 10.0 mi NNE 8.1 mph - N/A   Clear
4:19 AM 73.4 °F - 69.8 °F 88% 29.99 in 10.0 mi NE 12.7 mph - N/A   Mostly Cloudy
4:28 AM 73.4 °F - 69.8 °F 88% 29.96 in 8.0 mi ENE 16.1 mph - 0.01 in Rain Light Rain
4:53 AM 73.0 °F - 70.0 °F 90% 29.92 in 10.0 mi ENE 9.2 mph - 0.03 in Rain Light Rain
5:35 AM 73.4 °F - 69.8 °F 88% 29.97 in 9.0 mi East 10.4 mph - 0.00 in   Mostly Cloudy
5:53 AM 72.0 °F - 69.1 °F 91% 29.91 in 9.0 mi East 6.9 mph - 0.00 in   Partly Cloudy
6:53 AM 71.1 °F - 69.1 °F 93% 29.88 in 8.0 mi SE 13.8 mph - N/A   Clear
7:53 AM 73.0 °F - 70.0 °F 90% 29.87 in 6.0 mi SE 13.8 mph - N/A   Clear
8:53 AM 75.0 °F - 71.1 °F 87% 29.90 in 6.0 mi ENE 6.9 mph - N/A   Clear
9:32 AM 75.2 °F - 71.6 °F 89% 29.95 in 7.0 mi ENE 9.2 mph - N/A   Mostly Cloudy
9:53 AM 75.9 °F - 71.1 °F 85% 29.89 in 7.0 mi East 10.4 mph - N/A   Overcast
10:53 AM 79.0 °F - 70.0 °F 74% 29.88 in 8.0 mi SE 12.7 mph - N/A   Overcast
11:53 AM 82.0 °F 85.5 °F 69.1 °F 65% 29.86 in 9.0 mi SE 10.4 mph 20.7 mph N/A   Mostly Cloudy
12:53 PM 84.9 °F 88.8 °F 69.1 °F 59% 29.83 in 10.0 mi SSE 16.1 mph 19.6 mph N/A   Mostly Cloudy
1:30 PM 87.8 °F 92.6 °F 69.8 °F 55% 29.87 in 10.0 mi ESE 16.1 mph - N/A   Mostly Cloudy
1:53 PM 87.1 °F 91.3 °F 69.1 °F 55% 29.81 in 10.0 mi SE 16.1 mph 23.0 mph N/A   Scattered Clouds
2:53 PM 89.1 °F 93.7 °F 69.1 °F 52% 29.78 in 10.0 mi SE 15.0 mph 25.3 mph N/A   Clear
3:53 PM 91.9 °F 95.9 °F 68.0 °F 45% 29.74 in 10.0 mi SSE 16.1 mph - N/A   Clear
4:53 PM 93.0 °F 97.4 °F 68.0 °F 44% 29.72 in 10.0 mi SSE 13.8 mph - N/A   Clear
5:53 PM 93.0 °F 97.9 °F 69.1 °F 45% 29.69 in 10.0 mi SE 11.5 mph - N/A   Clear
6:53 PM 93.0 °F 97.9 °F 69.1 °F 45% 29.68 in 10.0 mi SE 11.5 mph - N/A   Clear
7:53 PM 84.9 °F 90.1 °F 71.1 °F 63% 29.69 in 10.0 mi ENE 8.1 mph - N/A   Clear
8:53 PM 84.0 °F 89.0 °F 71.1 °F 65% 29.68 in 10.0 mi East 11.5 mph - N/A   Clear
9:53 PM 82.9 °F 87.5 °F 71.1 °F 67% 29.66 in 10.0 mi ESE 12.7 mph - N/A   Clear
10:53 PM 80.1 °F 83.6 °F 71.1 °F 74% 29.66 in 10.0 mi ESE 9.2 mph - N/A   Clear
11:53 PM 77.0 °F - 71.1 °F 82% 29.65 in 9.0 mi ESE 9.2 mph - N/A   Clear